Voltar ao catálogo

COSMOS 1857

AtivoMilitarLEO
NORAD 18118·PAYLOAD·🇷🇺 Russia

Lançado Jun 16, 1987 de Plesetsk Cosmodrome

Loading…

Próximas Passagens (próximas 24 horas)

TLE

AtualizadoSource: Space-Track

Época: Sep 14, 2026, 19:19 UTC

1 18118U 87051F   26257.80497972 -.00000023  00000-0 -40602-4 0  9991
2 18118  74.0057  31.7231 0038309  30.0111 330.3127 12.54275260797017

Acompanhe COSMOS 1857 em tempo real com AllMySat

Download on the App Store